sat.trackr.live / text

‹ back to catalog

ONEWEB-0603

NORAD 54667 · 2022-166AB

PAYLOAD ACTIVE UNKNOWN

§ Identity

Operator
Country
UK
Launch date
2022-12-08
Launch site
AFETR
Launch vehicle
Mass (kg)
RCS (m²)

Purposes: comms

External: N2YO · Heavens-Above · Gunter

§ Orbital elements

Epoch: 2026-05-25T05:17:26.420352Z

Period
108.94 min
Inclination
87.9260°
Eccentricity
0.0002036
Mean motion
13.21825204 rev/d
Perigee alt
1,176.2 km
Apogee alt
1,179.3 km
Semi-major
7,555.9 km
B*
2.0903e-4
RAAN
248.5258°
Arg perigee
97.3350°
Mean anomaly
262.8015°
Rev number
16,844

§ Raw data

ONEWEB-06031 54667U 22166AB  26145.22044468  .00000099  00000+0  20903-3 0  99972 54667  87.9260 248.5258 0002036  97.3350 262.8015 13.21825204168449

JSON: /api/v1/satellites/54667 · /tle

For live sub-satellite position, see the globe view (requires WebGL).

§ Visibility from observer

Set your observer location to see the next 7 days of passes ≥ 10°. The values pass through the URL so the page stays shareable.

No JS? Fill the form by hand. The geolocation button needs JavaScript.